User: anonymous   Login
Location: West Cummington
(42.4920°N, 72.9680°W)
Time: 14:28:19
(UTC-05:00)
Language:

Cosmos 841 Rocket - Orbit

View from above orbital plane
View from above orbital plane
View from above satellite
View from above satellite

Ground track
Ground track

The orbit data is extracted from the following two-line orbital elements,

1 09023U 76069B   14355.41684370  .00000663  00000-0  22163-3 0  5654
2 09023 074.0451 333.6701 0017927 359.1722 000.9400 14.39276873 14069
Epoch (UTC): 21 December 2014 10:00:15
Eccentricity: 0.0017927
inclination: 74.0451°
perigee height: 748 km
apogee height: 773 km
right ascension of ascending node: 333.6701°
argument of perigee: 359.1722°
revolutions per day: 14.39276873
mean anomaly at epoch: 0.9400°
orbit number at epoch: 1406

The dashed part of the orbit path shows where the satellite is in the earth's shadow,  

DLR